Location: Whispering Pines Observatory
(39.4020°N, 104.7430°W)
Time: 08:07:19
(UTC-06:00)

MOS 1 Rocket - Visible Passes

Search period start: 21 September 2014 00:00
Search period end: 01 October 2014 00:00
Orbit: 616 x 835 km, 97.5° (Epoch: 20 September)

Date Brightness Start Highest point End Pass type
(mag) Time Alt. Az. Time Alt. Az. Time Alt. Az.
21 Sep 5.1 21:47:40 29° N 21:47:40 29° N 21:50:11 10° N visible
22 Sep 5.3 20:58:58 18° NE 20:58:58 18° NE 21:00:59 10° NNE visible
22 Sep 5.9 22:38:20 20° NNW 22:38:20 20° NNW 22:40:01 10° NNW visible
23 Sep 5.3 21:49:38 25° N 21:49:38 25° N 21:51:48 10° N visible
24 Sep 5.4 21:00:56 17° NNE 21:00:56 17° NNE 21:02:38 10° NNE visible
24 Sep 6.0 22:40:18 17° NNW 22:40:18 17° NNW 22:41:34 10° NNW visible
25 Sep 5.4 21:51:36 22° N 21:51:36 22° N 21:53:23 10° N visible
26 Sep 5.5 21:02:53 16° NNE 21:02:53 16° NNE 21:04:16 10° NNE visible
26 Sep 6.2 22:42:16 15° NNW 22:42:16 15° NNW 22:43:07 10° NNW visible
27 Sep 5.6 21:53:33 19° N 21:53:33 19° N 21:54:58 10° N visible
28 Sep 5.6 21:04:51 15° NNE 21:04:51 15° NNE 21:05:53 10° NNE visible
28 Sep 6.4 22:44:13 12° NNW 22:44:13 12° NNW 22:44:38 10° NNW visible
29 Sep 5.8 21:55:30 16° N 21:55:30 16° N 21:56:32 10° N visible
30 Sep 5.7 21:06:48 13° NNE 21:06:48 13° NNE 21:07:29 10° NNE visible
